When you browse on this site, cookies collect data to enhance your experience and personalize the content and advertising you see.
Visit our Privacy Policy to learn more. By continuing to use the site, you agree to this use of cookies and data.
  • In United Kingdom
  • List of Countries
  • For 7 days
  • Water Temperature
  • Weather Map
  • Weather Widgets
  • user-avatar
    Login

    Hourly Weather Baranovichi

    Today, 25 August, Sunday

    Time Temperature Precipitation Wind Pressure Humidity
    00:00 +14°C° 0 mm 0 mps 754 mmHg 76%
    01:00 +14°C° 0 mm 0 mps 754 mmHg 78%
    02:00 +14°C° 0 mm 0 mps 754 mmHg 80%
    03:00 +14°C° 0 mm 0 mps 754 mmHg 81%
    04:00 +13°C° 0 mm 0 mps 754 mmHg 82%
    05:00 +14°C° 0 mm 1 mps 754 mmHg 82%
    06:00 +16°C° 0 mm 1 mps 754 mmHg 79%
    07:00 +18°C° 0 mm 1 mps 754 mmHg 75%
    08:00 +20°C° 0 mm 1 mps 754 mmHg 71%
    09:00 +21°C° 0 mm 1 mps 754 mmHg 67%
    10:00 +23°C° 0 mm 1 mps 754 mmHg 63%
    11:00 +24°C° 0 mm 1 mps 755 mmHg 58%
    12:00 +25°C° 0 mm 1 mps 754 mmHg 57%
    13:00 +25°C° 0 mm 2 mps 754 mmHg 55%
    14:00 +26°C° 0 mm 2 mps 754 mmHg 53%
    15:00 +26°C° 0 mm 2 mps 754 mmHg 55%
    16:00 +26°C° 0 mm 2 mps 754 mmHg 58%
    17:00 +25°C° 0 mm 2 mps 754 mmHg 60%
    18:00 +24°C° 0 mm 2 mps 754 mmHg 66%
    19:00 +21°C° 0 mm 2 mps 754 mmHg 72%
    20:00 +19°C° 0 mm 2 mps 754 mmHg 78%
    21:00 +18°C° 0 mm 2 mps 754 mmHg 82%
    22:00 +18°C° 0 mm 2 mps 754 mmHg 85%
    23:00 +17°C° 0 mm 2 mps 754 mmHg 89%

    Tomorrow, 26 August, Monday

    Time Temperature Precipitation Wind Pressure Humidity
    00:00 +17°C° 0 mm 2 mps 754 mmHg 90%
    01:00 +16°C° 0 mm 2 mps 754 mmHg 91%
    02:00 +16°C° 0 mm 2 mps 754 mmHg 93%
    03:00 +16°C° 0 mm 2 mps 754 mmHg 93%
    04:00 +16°C° 0 mm 2 mps 754 mmHg 94%
    05:00 +15°C° 0 mm 2 mps 754 mmHg 94%
    06:00 +17°C° 0 mm 2 mps 754 mmHg 90%
    07:00 +18°C° 0 mm 2 mps 754 mmHg 86%
    08:00 +19°C° 0 mm 2 mps 754 mmHg 82%
    09:00 +21°C° 0 mm 2 mps 754 mmHg 76%
    10:00 +24°C° 0 mm 3 mps 754 mmHg 70%
    11:00 +25°C° 0 mm 3 mps 754 mmHg 65%
    12:00 +26°C° 0 mm 3 mps 754 mmHg 62%
    13:00 +26°C° 0 mm 3 mps 754 mmHg 60%
    14:00 +27°C° 0 mm 3 mps 754 mmHg 57%
    15:00 +27°C° 0 mm 2 mps 753 mmHg 59%
    16:00 +26°C° 0 mm 2 mps 753 mmHg 61%
    17:00 +26°C° 0 mm 2 mps 753 mmHg 63%
    18:00 +24°C° 0 mm 2 mps 753 mmHg 70%
    19:00 +21°C° 0 mm 2 mps 753 mmHg 76%
    20:00 +20°C° 0 mm 2 mps 752 mmHg 83%
    21:00 +19°C° 0 mm 2 mps 753 mmHg 84%
    22:00 +18°C° 0 mm 2 mps 753 mmHg 86%
    23:00 +18°C° 0 mm 2 mps 753 mmHg 87%

    Day after tomorrow, 27 August, Tuesday

    Time Temperature Precipitation Wind Pressure Humidity
    00:00 +18°C° 0 mm 2 mps 753 mmHg 88%
    01:00 +17°C° 0 mm 2 mps 753 mmHg 89%
    02:00 +17°C° 0 mm 2 mps 753 mmHg 89%
    03:00 +17°C° 0 mm 2 mps 753 mmHg 90%
    04:00 +16°C° 0 mm 1 mps 753 mmHg 90%
    05:00 +16°C° 0 mm 1 mps 753 mmHg 91%
    06:00 +18°C° 0 mm 1 mps 753 mmHg 86%
    07:00 +20°C° 0 mm 1 mps 753 mmHg 81%
    08:00 +21°C° 0 mm 1 mps 753 mmHg 76%
    09:00 +23°C° 0 mm 1 mps 753 mmHg 72%
    10:00 +24°C° 0 mm 2 mps 753 mmHg 67%
    11:00 +26°C° 0 mm 2 mps 753 mmHg 62%
    12:00 +26°C° 0 mm 2 mps 753 mmHg 59%
    13:00 +27°C° 0 mm 2 mps 753 mmHg 57%
    14:00 +27°C° 0 mm 1 mps 753 mmHg 54%
    15:00 +27°C° 0 mm 2 mps 753 mmHg 56%
    16:00 +27°C° 0 mm 2 mps 752 mmHg 58%
    17:00 +26°C° 0 mm 2 mps 752 mmHg 61%
    18:00 +25°C° 0 mm 1 mps 752 mmHg 66%
    19:00 +23°C° 0 mm 1 mps 752 mmHg 71%
    20:00 +21°C° 0 mm 1 mps 752 mmHg 76%
    21:00 +20°C° 0 mm 1 mps 752 mmHg 78%
    22:00 +20°C° 0 mm 1 mps 752 mmHg 79%
    23:00 +19°C° 0 mm 1 mps 753 mmHg 81%

    28 August, Wednesday

    Time Temperature Precipitation Wind Pressure Humidity
    00:00 +19°C° 0 mm 1 mps 752 mmHg 83%
    01:00 +19°C° 0 mm 1 mps 752 mmHg 86%
    02:00 +17°C° 0 mm 2 mps 752 mmHg 88%
    03:00 +17°C° 0 mm 2 mps 752 mmHg 90%
    04:00 +16°C° 0 mm 2 mps 752 mmHg 91%
    05:00 +16°C° 0 mm 2 mps 752 mmHg 92%
    06:00 +17°C° 0 mm 2 mps 752 mmHg 89%
    07:00 +19°C° 0 mm 2 mps 753 mmHg 85%
    08:00 +20°C° 0 mm 2 mps 753 mmHg 81%
    09:00 +21°C° 0 mm 2 mps 753 mmHg 76%
    10:00 +24°C° 0 mm 3 mps 753 mmHg 71%
    11:00 +25°C° 0 mm 3 mps 753 mmHg 65%
    12:00 +26°C° 0 mm 3 mps 752 mmHg 63%
    13:00 +26°C° 0 mm 3 mps 752 mmHg 61%
    14:00 +27°C° 0 mm 3 mps 752 mmHg 58%
    15:00 +26°C° 0 mm 3 mps 752 mmHg 60%
    16:00 +26°C° 0 mm 3 mps 752 mmHg 62%
    17:00 +25°C° 0 mm 3 mps 751 mmHg 64%
    18:00 +22°C° 0 mm 3 mps 751 mmHg 68%
    19:00 +21°C° 0 mm 3 mps 751 mmHg 72%
    20:00 +19°C° 0 mm 3 mps 751 mmHg 75%
    21:00 +18°C° 0 mm 3 mps 752 mmHg 76%
    22:00 +17°C° 0 mm 3 mps 752 mmHg 77%
    23:00 +15°C° 0 mm 4 mps 752 mmHg 78%

    29 August, Thursday

    Time Temperature Precipitation Wind Pressure Humidity
    00:00 +15°C° 0 mm 4 mps 752 mmHg 80%
    01:00 +14°C° 0 mm 3 mps 752 mmHg 82%
    02:00 +14°C° 0 mm 3 mps 752 mmHg 84%
    03:00 +13°C° 0 mm 3 mps 752 mmHg 86%
    04:00 +13°C° 0 mm 3 mps 752 mmHg 87%
    05:00 +12°C° 0 mm 3 mps 752 mmHg 88%
    06:00 +13°C° 0 mm 3 mps 752 mmHg 84%
    07:00 +14°C° 0 mm 4 mps 752 mmHg 80%
    08:00 +15°C° 0 mm 4 mps 752 mmHg 76%
    09:00 +17°C° 0 mm 4 mps 752 mmHg 72%
    10:00 +19°C° 0 mm 4 mps 752 mmHg 68%
    11:00 +20°C° 0 mm 5 mps 752 mmHg 64%
    12:00 +21°C° 0 mm 5 mps 752 mmHg 62%
    13:00 +22°C° 0 mm 5 mps 751 mmHg 61%
    14:00 +23°C° 0 mm 4 mps 751 mmHg 59%
    15:00 +22°C° 0 mm 4 mps 751 mmHg 61%
    16:00 +22°C° 0 mm 4 mps 751 mmHg 62%
    17:00 +22°C° 0 mm 4 mps 751 mmHg 64%
    18:00 +20°C° 0 mm 4 mps 751 mmHg 67%
    19:00 +18°C° 0 mm 4 mps 750 mmHg 71%
    20:00 +15°C° 0 mm 4 mps 750 mmHg 74%
    21:00 +15°C° 0 mm 4 mps 751 mmHg 71%
    22:00 +14°C° 0 mm 4 mps 751 mmHg 68%
    23:00 +14°C° 0 mm 4 mps 751 mmHg 66%

    30 August, Friday

    Time Temperature Precipitation Wind Pressure Humidity
    00:00 +13°C° 0 mm 4 mps 751 mmHg 66%
    01:00 +12°C° 0 mm 3 mps 751 mmHg 67%
    02:00 +12°C° 0 mm 3 mps 750 mmHg 67%
    03:00 +11°C° 0 mm 3 mps 750 mmHg 68%
    04:00 +11°C° 0 mm 3 mps 750 mmHg 70%
    05:00 +10°C° 0 mm 3 mps 750 mmHg 71%
    06:00 +11°C° 0 mm 4 mps 750 mmHg 69%
    07:00 +13°C° 0 mm 4 mps 750 mmHg 68%
    08:00 +14°C° 0 mm 4 mps 750 mmHg 66%
    09:00 +17°C° 0 mm 4 mps 750 mmHg 63%
    10:00 +18°C° 0 mm 4 mps 750 mmHg 59%
    11:00 +20°C° 0 mm 4 mps 750 mmHg 55%
    12:00 +21°C° 0 mm 5 mps 750 mmHg 53%
    13:00 +22°C° 0 mm 5 mps 750 mmHg 52%
    14:00 +23°C° 0 mm 5 mps 750 mmHg 50%
    15:00 +23°C° 0 mm 4 mps 749 mmHg 53%
    16:00 +23°C° 0 mm 4 mps 749 mmHg 56%
    17:00 +24°C° 0 mm 3 mps 749 mmHg 59%
    18:00 +21°C° 0 mm 3 mps 749 mmHg 62%
    19:00 +19°C° 0 mm 3 mps 749 mmHg 65%
    20:00 +17°C° 0 mm 3 mps 749 mmHg 69%
    21:00 +16°C° 0 mm 3 mps 749 mmHg 69%
    22:00 +16°C° 0 mm 3 mps 749 mmHg 70%
    23:00 +14°C° 0 mm 3 mps 749 mmHg 70%
    Show more